Jogging d'Houffalize 23/09/2017 - 7 Km
Place Nom Prénom Temps Vitesse Allure Place. Cat. Cat. Club
1 LEONARD GILLES 71 0:28:10 14,9 4:01 1 S
2 GRAVIER CHRISTOPHE 44 0:29:42 14,1 4:14 2 S Séniors
3 LENFANT MARC-ANTOINE 38 0:29:45 14,1 4:15 1 EG Espoirs Garçons
4 SCHLOUNE NICOLAS 33 0:30:09 13,9 4:18 3 S Séniors
5 LEGRAND JOACHIM 16 0:31:13 13,4 4:27 4 S Séniors
6 WIDART KEVIN 81 0:31:51 13,2 4:33 5 S
7 PLAGNAUD JEAN-LUC 66 0:33:05 12,7 4:43 1 V2+
8 SON KATHLEEN 20 0:33:24 12,6 4:46 1 D Dames
9 BAUWERAERTS BENJAMIN 75 0:35:38 11,8 5:05 6 S
10 BERTRAND ALAIN 35 0:35:41 11,8 5:05 2 V2+ Vétérans 2+
11 LAPORTE GILLES 77 0:35:54 11,7 5:07 7 S
12 DOMINIQUE NATHALIE 34 0:36:00 11,7 5:08 1 A2+ Ainées 2+
13 MALARME CHRISTOPHE 67 0:37:37 11,2 5:22 1 V1
14 USELDING SACHA 18 0:38:07 11,0 5:26 2 EG Espoirs Garçons
15 BLANJEAN OLIVIER 65 0:38:07 11,0 5:26 8 S
16 LOCKMAN GREGORY 22 0:38:29 10,9 5:29 9 S Séniors
17 LHERMITTE THOMAS 25 0:38:41 10,9 5:31 10 S Séniors
18 GIRS CORALINE 30 0:38:52 10,8 5:33 2 D Dames
19 LEONARD JULIE 17 0:38:52 10,8 5:33 1 A1 Ainées 1
20 MARCHEWKA FRANCOIS 87 0:39:01 10,8 5:34 11 S
21 GOOSE JUSTINE 31 0:39:20 10,7 5:37 3 D Dames
22 SERVAIS BERNARD 62 0:39:23 10,7 5:37 3 V2+ Vétérans 2+
23 ROB FRANCOIS 68 0:39:24 10,7 5:37 12 S
24 DUBRU GILLES 86 0:39:46 10,6 5:40 13 S
25 GROGNA JEAN-CHRISTOHPE 69 0:40:39 10,3 5:48 14 S
26 MAYON JESSICA 3 0:41:11 10,2 5:53 2 A1 Ainées 1
27 STOFFEN JEAN-MARIE 27 0:41:11 10,2 5:53 4 V2+ Vétérans 2+
28 GLESNER SARAH 70 0:41:25 10,1 5:55 4 D
29 FONTAINE VINCENT 79 0:43:01 9,8 6:08 15 S
30 BURNOTTE MARIE-CECILE 8 0:43:12 9,7 6:10 2 A2+ Ainées 2+
31 PHILIPPART CLAUDE 78 0:44:00 9,5 6:17 2 V1
32 POTTY BENOIT 63 0:45:28 9,2 6:29 16 S
33 PAMELARD GERALDINE 64 0:45:40 9,2 6:31 5 D
34 LEJEUNE KIM 41 0:46:36 9,0 6:39 6 D Dames
35 MERCHE GILLES 80 0:47:50 8,8 6:50 17 S
36 BASTIN LAURENCE 6 0:48:06 8,7 6:52 3 A2+ Ainées 2+
37 DEWALQUE LUDIVINE 84 0:51:00 8,2 7:17 1 EF
38 GRANDJEAN CHARLOTTE 83 0:52:45 8,0 7:32 2 EF
39 MARTIN CHANTAL 74 0:53:34 7,8 7:39 4 A2+
40 NOERDINGER ANNE 82 0:53:36 7,8 7:39 3 A1
41 HUBERT VALERIE 85 0:53:43 7,8 7:40 5 A2+
42 BALAND VINCIANE 72 0:59:27 7,1 8:29 6 A2+
43 RIVIERE NADINE 73 1:03:57 6,6 9:08 7 A2+